HR2RCH-13 Weather Reports


Display with metric or nautical units.
time (UTC)temp
F
wind
direction
speed
MPH
gust
MPH
rain 1hr
in
rain 24hr
in
rain mn
in
humidity
%
barometer
mb
20260507064548 0 0 0.0 1.0 0.00 0.00 0.00 1008.9
20260507063054 0 76 0.0 3.0 0.00 0.00 0.00 1009.1
20260507061544 0 76 0.0 3.0 0.00 0.00 0.00 1009.2
20260507054552 0 81 1.0 2.0 0.00 0.00 0.00 1009.7
20260507053051 0 91 1.0 4.0 0.00 0.00 0.00 1009.9
20260507051545 0 58 1.0 3.0 0.00 0.00 0.00 1010.0
20260507050045 0 103 1.0 4.0 0.00 0.00 0.00 1010.2
20260507044548 0 84 1.0 3.0 0.00 0.00 0.00 1010.2
20260507043047 0 109 1.0 4.0 0.00 0.00 0.00 1010.2
20260507041547 0 115 1.0 4.0 0.00 0.00 0.00 1010.3
20260507040045 0 86 1.0 3.0 0.00 0.00 0.00 1010.2
20260507034554 0 111 2.0 4.0 0.00 0.00 0.00 1010.1
20260507033049 0 131 2.0 6.0 0.00 0.00 0.00 1009.9
20260507031547 0 184 2.0 8.0 0.00 0.00 0.00 1009.9
20260507030047 0 124 3.0 7.0 0.00 0.00 0.00 1009.8
20260507024559 0 172 3.0 6.0 0.00 0.00 0.00 1009.6
20260507023050 0 162 3.0 7.0 0.00 0.00 0.00 1009.6
20260507021552 0 176 3.0 5.0 0.00 0.00 0.00 1009.5
20260507020052 0 121 3.0 8.0 0.00 0.00 0.00 1009.3
20260507014553 0 153 3.0 9.0 0.00 0.00 0.00 1009.1
20260507013052 0 157 1.0 6.0 0.00 0.00 0.00 1009.0
20260507011551 0 120 3.0 7.0 0.00 0.00 0.00 1008.8
20260507010105 0 124 5.0 9.0 0.00 0.00 0.00 1008.5
20260507004549 0 221 3.0 9.0 0.00 0.00 0.00 1008.2
20260507003052 0 143 2.0 10.0 0.00 0.00 0.00 1007.9
20260507001555 0 236 3.0 10.0 0.00 0.00 0.00 1007.8
20260507000051 0 211 3.0 9.0 0.00 0.00 0.00 1007.6
20260506234545 0 188 5.0 9.0 0.00 0.00 0.00 1007.3
20260506233057 0 250 3.0 9.0 0.00 0.00 0.00 1007.2
20260506231544 0 266 4.0 11.0 0.00 0.00 0.00 1007.1
20260506230052 0 140 5.0 14.0 0.00 0.00 0.00 1007.0
20260506224553 0 248 4.0 11.0 0.00 0.00 0.00 1006.9
20260506223045 0 254 5.0 11.0 0.00 0.00 0.00 1006.8
20260506221548 0 240 5.0 12.0 0.00 0.00 0.00 1006.8
20260506220050 0 195 4.0 12.0 0.00 0.00 0.00 1006.7
20260506214547 0 229 4.0 12.0 0.00 0.00 0.00 1006.7
20260506213049 0 171 5.0 10.0 0.00 0.00 0.00 1006.6
20260506211553 0 283 4.0 12.0 0.00 0.00 0.00 1006.7
20260506210048 0 239 4.0 8.0 0.00 0.00 0.00 1006.7
20260506204546 0 226 5.0 9.0 0.00 0.00 0.00 1006.8
20260506203051 0 219 3.0 10.0 0.00 0.00 0.00 1007.0
20260506201549 0 145 5.0 10.0 0.00 0.00 0.00 1007.1
20260506200044 0 164 5.0 13.0 0.00 0.00 0.00 1007.2
20260506194550 0 266 4.0 16.0 0.00 0.00 0.00 1007.5
20260506193052 0 255 8.0 15.0 0.00 0.00 0.00 1007.5
20260506191548 0 268 4.0 10.0 0.00 0.00 0.00 1007.8
20260506190045 0 259 7.0 12.0 0.00 0.00 0.00 1008.1
20260506184550 0 219 4.0 9.0 0.00 0.00 0.00 1008.5
20260506183047 0 261 5.0 12.0 0.00 0.00 0.00 1008.8
20260506181545 0 133 3.0 8.0 0.00 0.00 0.00 1009.0
20260506180047 0 282 2.0 7.0 0.00 0.00 0.00 1009.2
20260506174557 0 318 2.0 4.0 0.00 0.00 0.00 1009.3
20260506173048 0 257 2.0 10.0 0.00 0.00 0.00 1009.5
20260506171552 0 276 3.0 7.0 0.00 0.00 0.00 1009.7
20260506170047 0 314 4.0 8.0 0.00 0.00 0.00 1010.0
20260506164552 0 276 3.0 7.0 0.00 0.00 0.00 1010.1
20260506163052 0 329 3.0 6.0 0.00 0.00 0.00 1010.2
20260506161547 0 172 3.0 6.0 0.00 0.00 0.00 1010.3
20260506160049 0 275 2.0 7.0 0.00 0.00 0.00 1010.5
20260506154551 0 260 2.0 6.0 0.00 0.00 0.00 1010.6
20260506153052 0 268 2.0 6.0 0.00 0.00 0.00 1010.7
20260506151547 0 261 3.0 5.0 0.00 0.00 0.00 1010.7
20260506150059 0 294 1.0 4.0 0.00 0.00 0.00 1010.8
20260506144609 0 184 1.0 4.0 0.00 0.00 0.00 1010.8
20260506143051 0 257 1.0 5.0 0.00 0.00 0.00 1010.8
20260506141546 0 0 0.0 3.0 0.00 0.00 0.00 1010.8
20260506140104 0 262 1.0 3.0 0.00 0.00 0.00 1010.8
20260506134546 0 252 1.0 2.0 0.00 0.00 0.00 1010.7
20260506133102 0 163 0.0 5.0 0.00 0.00 0.00 1010.6
20260506131547 0 229 0.0 2.0 0.00 0.00 0.00 1010.6
20260506130124 0 0 1.0 2.0 0.00 0.00 0.00 1010.4
20260506124552 0 0 0.0 1.0 0.00 0.00 0.00 1010.3
20260506123048 0 82 0.0 2.0 0.00 0.00 0.00 1010.3
20260506121553 0 60 0.0 1.0 0.00 0.00 0.00 1010.2
20260506120047 0 60 0.0 3.0 0.00 0.00 0.00 1010.2
20260506114547 0 53 1.0 3.0 0.00 0.00 0.00 1010.1
20260506113050 0 0 0.0 2.0 0.00 0.00 0.00 1009.8
20260506111547 0 72 0.0 1.0 0.00 0.00 0.00 1009.6
20260506110053 0 90 0.0 2.0 0.00 0.00 0.00 1009.4
20260506104554 0 109 0.0 1.0 0.00 0.00 0.00 1009.3
20260506103044 0 0 0.0 1.0 0.00 0.00 0.00 1009.0
20260506101550 0 79 0.0 2.0 0.00 0.00 0.00 1009.0
20260506100104 0 82 0.0 1.0 0.00 0.00 0.00 1009.0
20260506094550 0 86 1.0 3.0 0.00 0.00 0.00 1008.9
20260506093047 0 94 0.0 3.0 0.00 0.00 0.00 1008.8
20260506091551 0 84 0.0 1.0 0.00 0.00 0.00 1008.9
20260506090044 0 0 0.0 2.0 0.00 0.00 0.00 1008.9
20260506084541 0 83 1.0 2.0 0.00 0.00 0.00 1008.9
20260506083055 0 79 1.0 2.0 0.00 0.00 0.00 1008.9
20260506081601 0 78 1.0 3.0 0.00 0.00 0.00 1009.0
20260506073051 0 114 0.0 1.0 0.00 0.00 0.00 1009.5
20260506071550 0 0 0.0 2.0 0.00 0.00 0.00 1009.6